Location: Kerb�bon
(47.7970°N, 3.3487°W)
Time: 12:35:51
(UTC+00:00)

SOZ - Pass Details

Date: 12 May 2021
Orbit: 306 x 16716 km, 52.0° (Epoch: 18 June)

Event Time Altitude Azimuth Distance (km) Brightness Sun altitude
Rises 20:16:36 0° 245° (WSW) 3,513 9.9 -5.8°
Reaches altitude 10° 20:19:55 10° 247° (WSW) 1,793 8.4 -6.3°
Maximum altitude 20:23:07 84° 336° (NNW) 348 4.4 -6.7°
Drops below altitude 10° 20:25:10 11° 65° (ENE) 1,165 6.7 -7.0°
Sets 20:26:58 0° 66° (ENE) 2,122 8.0 -7.2°
